Location: Briis
(48.6240°N, 2.1211°E)
Time: 07:39:13
(UTC+00:00)

Cosmos 2016 Rocket - Pass Details

Date: 25 September 2020
Orbit: 946 x 1001 km, 83.0° (Epoch: 21 October)

Event Time Altitude Azimuth Distance (km) Brightness Sun altitude
Rises 04:18:29 0° 349° (N) 3,638 7.1 -14.6°
Reaches altitude 10° 04:20:59 10° 349° (N) 2,684 6.4 -14.2°
Maximum altitude 04:27:07 81° 264° (W) 965 3.9 -13.2°
Drops below altitude 10° 04:33:11 10° 178° (S) 2,662 6.2 -12.2°
Sets 04:35:40 0° 177° (S) 3,605 6.9 -11.8°
